Regional Weather Roundup
Issued by NWS Charleston, SC

Current Version | Previous Version | Graphics & Text | Print | Product List | Glossary On
Versions: 1 2 3 4 5 6 7 8 9 10 11 12 13 14 15 16 17 18 19 20 21 22 23 24 25 26 27 28 29 30 31 32 33 34 35 36 37 38 39 40 41 42 43 44 45 46 47 48 49 50
000
ASUS42 KCHS 171425
RWRCHS

REGIONAL WEATHER ROUNDUP
NATIONAL WEATHER SERVICE CHARLESTON SC
900 AM EST WED DEC 17 2014

NOTE: "FAIR" INDICATES FEW OR NO CLOUDS BELOW 12,000 FEET WITH NO
SIGNIFICANT WEATHER AND/OR OBSTRUCTIONS TO VISIBILITY.

NOT ALL STATIONS ARE QUALITY CONTROLLED BY THE NATIONAL
WEATHER SERVICE. USE DATA WITH CAUTION...ESPECIALLY
DEWPOINT OBSERVATIONS.

SCZ027-030-031-034>040-042>050-171500-
...SOUTHEAST SOUTH CAROLINA...

CITY           SKY/WX    TMP DP  RH WIND       PRES   REMARKS
N CHARLESTON   MOSUNNY   48  40  73 NW5       30.16R
WATERFRONT PRK NOT AVBL
MOUNT PLEASANT FAIR      50  41  71 NW5       30.16R
PINOPOLIS        N/A     46  41  81 W5        30.06S
MONCKS CORNER  FAIR      48  41  76 CALM      30.16R
SUMMERVILLE    FAIR      48  43  81 CALM      30.17S
BEAUFORT MCAS  MOSUNNY   49  40  71 NW8       30.17R
BEAUFORT ARPT  FAIR      50  43  76 NW3       30.17R
HILTON HEAD IS SUNNY     48  41  76 NW7       30.17
WALTERBORO     SUNNY     46  41  81 NW5       30.17S
ALLENDALE      FAIR      46  41  81 NW5       30.16S

...SOUTHERN MIDLANDS AND PEE DEE...

CITY           SKY/WX    TMP DP  RH WIND       PRES   REMARKS
GEORGETOWN     NOT AVBL
KINGSTREE      NOT AVBL
ORANGEBURG     SUNNY     44  37  76 NW3       30.16R
BARNWELL       FAIR      46  41  81 CALM      30.17S
AIKEN          FAIR      45  41  87 W3        30.18S
MANNING        NOT AVBL
COLUMBIA       MOSUNNY   44  38  79 CALM      30.15R
SUMTER         MOSUNNY   46  39  76 VRB2      30.14R
FLORENCE       SUNNY     47  39  74 NW5       30.14R
MYRTLE BEACH   SUNNY     48  39  71 NW6       30.16R
N MYRTLE BEACH SUNNY     49  41  74 CALM      30.13R

$$

GAZ063-065-086>088-099>101-113>116-118-119-134>141-150-171500-
...SOUTHEAST GEORGIA...

CITY           SKY/WX    TMP DP  RH WIND       PRES   REMARKS
SAVANNAH ARPT  MOSUNNY   48  38  68 NW8       30.18R
HUNTER AAF     SUNNY     47  40  76 NW6       30.17R
FORT STEWART   SUNNY     47  39  74 NW7       30.17R
STATESBORO     SUNNY     47  41  80 N7        30.18R
SYLVANIA       SUNNY     48  43  82 NW5       30.19R
CLAXTON        FAIR     N/A N/A N/A NW7       30.19S

...CSRA...CENTRAL AND FAR SOUTHEAST GEORGIA...

CITY           SKY/WX    TMP DP  RH WIND       PRES   REMARKS
THOMSON        SUNNY     46  42  85 W6        30.21R
AUGUSTA-BUSH   SUNNY     42  38  85 W3        30.17S
AUGUSTA-DANIEL SUNNY     45  38  76 NW8       30.17R
SWAINSBORO     FAIR      45  45 100 W3        30.19S
VIDALIA        SUNNY     46  41  81 NW6       30.19S
EASTMAN        FAIR      44  43  95 NW5       30.22S
HAZLEHURST     FAIR      47  42  82 N7        30.19S
ALMA           SUNNY     46  39  76 N6        30.19R
WAYCROSS       SUNNY     50  43  78 CALM      30.21R
JESUP          FAIR      50  43  76 N3        30.19S
BAXLEY         FAIR      50  41  71 N5        30.18F
BRUNSWICK      SUNNY     50  41  71 NW6       30.21R
SAINT SIMONS   SUNNY     49  39  68 NW7       30.20R

$$

SCZ027-028-034-036>038-045-046-048>050-GAZ119-141-171500-
...LAKE AND SUPPLEMENTAL COASTAL OBSERVATIONS...

STATION/POSITION TIME  TEMP    WIND        PRES    WAVE   SWELL
                       AIR SEA DIR/SP/G            HT/PER HT/PER/DIR
                 (UTC) (F)     (DEG/KT/KT) (MB)    (FT/S) (FT/S/D)
UPR LAKE MARION  NOT AVBL
WINYAH BAY       1400   48     300/  6     1020.0S
LAKE MURRAY      1300   43     270/  5/  6 1020.3R
ACE BASIN NERRS  1400   47     320/  3     1021.0S
FORT PULASKI     1400   47 56  300/  8/ 10 1022.3R
SAPELO ISLAND    1400   47     330/  6     1022.0S

$$

ANZ835-935-AMZ111-154-330-350-352-354-370-450-454-472-171500-
...C-MAN AND BUOY OBSERVATIONS...

STATION/POSITION TIME  TEMP    WIND        PRES    WAVE   SWELL
                       AIR SEA DIR/SP/G            HT/PER HT/PER/DIR
                 (UTC) (F)     (DEG/KT/KT) (MB)    (FT/S) (FT/S/D)
BUOY 41004       1400   58 73  350/ 14/ 16 1020.3R   4/ 4   2/ 6
BUOY 41008       1400   51 58  340/ 12/ 14 1021.9R   2/11   2/ 90/11
FOLLY BEACH CMAN 1400   49     330/  6/  9 1021.4R
CAPERS NEARSHORE 1300   49     320/ 14/ 16   N/A
FRIPP NEARSHORE  NOT AVBL


STATION/POSITION TIME  TEMP    WIND        PRES    WAVE   SWELL
                       AIR SEA DIR/SP/G            HT/PER HT/PER/DIR
                 (UTC) (F)     (DEG/KT/KT) (MB)    (FT/S) (FT/S/D)
5E ST. MARYS GA  1400      60                N/A     2/12
FRYING PAN BUOY  1400   56 64  350/ 16/ 17 1020.1R   4/ 7   2/200/ 7
BUOY 41025       1400   54                 1017.8R   5/ 8
CAPE LOOKOUT NC  1400   52     320/ 11/ 13 1019.0R
BUOY 41002       1258   70 73  290/ 19/ 23 1018.2   10/ 8
BUOY 41010       1400   72 76  280/ 17/ 19 1020.9R   6/ 7   2/100/11
ST AUGUSTINE FL  1400   53     330/ 10/ 11 1023.2R


$$


USA.gov is the U.S. government's official web portal to all federal, state and local government web resources and services.